Time,TemperatureF,DewpointF,PressureIn,WindDirection,WindDirectionDegrees,WindSpeedMPH,WindSpeedGustMPH,Humidity,HourlyPrecipIn,Conditions,Clouds,dailyrainin,SoftwareType,DateUTC
2013-06-07 00:02:00,57.0,45.0,26.69,SW,215,3.0,5.0,64,0.00,,,0.00,,2013-06-07 06:02:00,
2013-06-07 00:12:00,57.0,45.0,26.69,SW,215,3.0,5.0,64,0.00,,,0.00,,2013-06-07 06:12:00,
2013-06-07 00:22:00,57.0,45.0,26.69,SW,215,2.0,5.0,64,0.00,,,0.00,,2013-06-07 06:22:00,
2013-06-07 00:32:00,57.0,45.0,26.69,SW,226,3.0,5.0,64,0.00,,,0.00,,2013-06-07 06:32:00,
2013-06-07 00:42:00,57.0,45.0,26.69,SW,226,3.0,5.0,64,0.00,,,0.00,,2013-06-07 06:42:00,
2013-06-07 00:52:00,57.0,45.0,26.69,SW,222,0.0,5.0,64,0.00,,,0.00,,2013-06-07 06:52:00,
2013-06-07 01:02:00,57.0,45.0,26.68,SW,219,3.0,7.0,64,0.00,,,0.00,,2013-06-07 07:02:00,
2013-06-07 01:12:00,57.0,45.0,26.68,SW,219,3.0,7.0,64,0.00,,,0.00,,2013-06-07 07:12:00,
2013-06-07 01:22:00,56.0,44.0,26.68,SW,218,2.0,6.0,65,0.00,,,0.00,,2013-06-07 07:22:00,
2013-06-07 01:32:00,56.0,44.0,26.67,SW,219,0.0,2.0,65,0.00,,,0.00,,2013-06-07 07:32:00,
2013-06-07 01:42:00,56.0,44.0,26.67,SW,219,0.0,2.0,65,0.00,,,0.00,,2013-06-07 07:42:00,
2013-06-07 01:52:00,55.0,44.0,26.67,SW,219,0.0,2.0,66,0.00,,,0.00,,2013-06-07 07:52:00,
2013-06-07 02:02:00,55.0,44.0,26.67,SW,219,1.0,4.0,67,0.00,,,0.00,,2013-06-07 08:02:00,
2013-06-07 02:12:00,55.0,44.0,26.67,SW,219,1.0,4.0,67,0.00,,,0.00,,2013-06-07 08:12:00,
2013-06-07 02:22:00,54.0,44.0,26.67,SW,219,0.0,1.0,68,0.00,,,0.00,,2013-06-07 08:22:00,
2013-06-07 02:32:00,53.0,43.0,26.66,SW,215,1.0,3.0,69,0.00,,,0.00,,2013-06-07 08:32:00,
2013-06-07 02:42:00,53.0,43.0,26.66,SW,215,1.0,3.0,69,0.00,,,0.00,,2013-06-07 08:42:00,
2013-06-07 02:52:00,52.0,43.0,26.66,ESE,117,0.0,6.0,71,0.00,,,0.00,,2013-06-07 08:52:00,
2013-06-07 03:02:00,51.0,43.0,26.65,ESE,117,0.0,5.0,73,0.00,,,0.00,,2013-06-07 09:02:00,
2013-06-07 03:12:00,51.0,43.0,26.65,ESE,117,0.0,5.0,73,0.00,,,0.00,,2013-06-07 09:12:00,
2013-06-07 03:22:00,51.0,43.0,26.65,ESE,117,0.0,2.0,74,0.00,,,0.00,,2013-06-07 09:22:00,
2013-06-07 03:32:00,50.0,43.0,26.64,ESE,119,0.0,5.0,76,0.00,,,0.00,,2013-06-07 09:32:00,
2013-06-07 03:43:00,50.0,43.0,26.64,ESE,119,0.0,5.0,76,0.00,,,0.00,,2013-06-07 09:43:00,
2013-06-07 03:53:00,49.0,42.0,26.64,ESE,120,4.0,6.0,77,0.00,,,0.00,,2013-06-07 09:53:00,
2013-06-07 04:02:00,49.0,42.0,26.64,ESE,119,2.0,5.0,78,0.00,,,0.00,,2013-06-07 10:02:00,
2013-06-07 04:12:00,49.0,42.0,26.64,ESE,119,2.0,5.0,78,0.00,,,0.00,,2013-06-07 10:12:00,
2013-06-07 04:23:00,48.0,42.0,26.63,ESE,114,3.0,6.0,79,0.00,,,0.00,,2013-06-07 10:23:00,
2013-06-07 04:32:00,49.0,43.0,26.62,ESE,119,4.0,5.0,80,0.00,,,0.00,,2013-06-07 10:32:00,
2013-06-07 04:42:00,49.0,43.0,26.62,ESE,119,4.0,5.0,80,0.00,,,0.00,,2013-06-07 10:42:00,
2013-06-07 04:53:00,48.0,42.0,26.62,ESE,121,5.0,8.0,80,0.00,,,0.00,,2013-06-07 10:53:00,
2013-06-07 05:02:00,48.0,42.0,26.62,SE,132,0.0,6.0,80,0.00,,,0.00,,2013-06-07 11:02:00,
2013-06-07 05:12:00,48.0,42.0,26.62,SE,132,0.0,6.0,80,0.00,,,0.00,,2013-06-07 11:12:00,
2013-06-07 05:22:00,48.0,42.0,26.62,SE,132,0.0,4.0,81,0.00,,,0.00,,2013-06-07 11:22:00,
2013-06-07 05:32:00,48.0,42.0,26.63,SE,132,4.0,6.0,81,0.00,,,0.00,,2013-06-07 11:32:00,
2013-06-07 05:42:00,48.0,42.0,26.63,SE,132,4.0,6.0,81,0.00,,,0.00,,2013-06-07 11:42:00,
2013-06-07 05:52:00,48.0,42.0,26.63,ESE,123,0.0,2.0,81,0.00,,,0.00,,2013-06-07 11:52:00,
2013-06-07 06:02:00,48.0,42.0,26.62,ESE,122,0.0,0.0,81,0.00,,,0.00,,2013-06-07 12:02:00,
2013-06-07 06:12:00,48.0,42.0,26.62,ESE,122,0.0,0.0,81,0.00,,,0.00,,2013-06-07 12:12:00,
2013-06-07 06:22:00,49.0,43.0,26.62,ESE,123,0.0,0.0,80,0.00,,,0.00,,2013-06-07 12:22:00,
2013-06-07 06:32:00,51.0,45.0,26.63,ESE,122,0.0,0.0,80,0.00,,,0.00,,2013-06-07 12:32:00,
2013-06-07 06:42:00,51.0,45.0,26.63,ESE,122,0.0,0.0,80,0.00,,,0.00,,2013-06-07 12:42:00,
2013-06-07 06:52:00,52.0,45.0,26.62,ESE,122,0.0,0.0,77,0.00,,,0.00,,2013-06-07 12:52:00,
2013-06-07 07:02:00,53.0,45.0,26.62,ESE,122,0.0,0.0,74,0.00,,,0.00,,2013-06-07 13:02:00,
2013-06-07 07:12:00,53.0,45.0,26.62,ESE,122,0.0,0.0,74,0.00,,,0.00,,2013-06-07 13:12:00,
2013-06-07 07:22:00,55.0,46.0,26.62,ESE,123,0.0,0.0,72,0.00,,,0.00,,2013-06-07 13:22:00,
2013-06-07 07:32:00,57.0,47.0,26.62,ESE,122,0.0,0.0,69,0.00,,,0.00,,2013-06-07 13:32:00,
2013-06-07 07:42:00,57.0,47.0,26.62,ESE,122,0.0,0.0,69,0.00,,,0.00,,2013-06-07 13:42:00,
2013-06-07 07:52:00,58.0,48.0,26.62,ESE,123,0.0,0.0,69,0.00,,,0.00,,2013-06-07 13:52:00,
2013-06-07 08:02:00,61.0,49.0,26.61,ESE,123,0.0,0.0,64,0.00,,,0.00,,2013-06-07 14:02:00,
2013-06-07 08:12:00,61.0,49.0,26.61,ESE,123,0.0,0.0,64,0.00,,,0.00,,2013-06-07 14:12:00,
2013-06-07 08:22:00,64.0,51.0,26.61,ESE,122,0.0,1.0,62,0.00,,,0.00,,2013-06-07 14:22:00,
2013-06-07 08:32:00,66.0,50.0,26.61,ESE,123,0.0,5.0,56,0.00,,,0.00,,2013-06-07 14:32:00,
2013-06-07 08:42:00,66.0,50.0,26.61,ESE,123,0.0,5.0,56,0.00,,,0.00,,2013-06-07 14:42:00,
2013-06-07 08:52:00,67.0,50.0,26.60,ESE,109,4.0,7.0,55,0.00,,,0.00,,2013-06-07 14:52:00,
2013-06-07 09:02:00,66.0,52.0,26.60,ESE,113,4.0,8.0,60,0.00,,,0.00,,2013-06-07 15:02:00,
2013-06-07 09:12:00,66.0,52.0,26.60,ESE,113,4.0,8.0,60,0.00,,,0.00,,2013-06-07 15:12:00,
2013-06-07 09:22:00,65.0,52.0,26.60,ESE,109,4.0,8.0,63,0.00,,,0.00,,2013-06-07 15:22:00,
2013-06-07 09:33:00,65.0,52.0,26.59,ESE,117,6.0,10.0,63,0.00,,,0.00,,2013-06-07 15:33:00,
2013-06-07 09:43:00,65.0,52.0,26.59,ESE,117,6.0,10.0,63,0.00,,,0.00,,2013-06-07 15:43:00,
2013-06-07 09:53:00,66.0,52.0,26.58,East,96,6.0,10.0,61,0.00,,,0.00,,2013-06-07 15:53:00,
2013-06-07 10:03:00,68.0,53.0,26.58,ESE,121,7.0,10.0,58,0.00,,,0.00,,2013-06-07 16:03:00,
2013-06-07 10:13:00,68.0,53.0,26.58,ESE,121,7.0,10.0,58,0.00,,,0.00,,2013-06-07 16:13:00,
2013-06-07 10:22:00,68.0,51.0,26.57,ESE,115,6.0,11.0,54,0.00,,,0.00,,2013-06-07 16:22:00,
2013-06-07 10:33:00,70.0,52.0,26.57,SE,146,6.0,11.0,52,0.00,,,0.00,,2013-06-07 16:33:00,
2013-06-07 10:43:00,70.0,52.0,26.57,SE,146,6.0,11.0,52,0.00,,,0.00,,2013-06-07 16:43:00,
2013-06-07 10:53:00,71.0,52.0,26.57,ESE,111,8.0,12.0,51,0.00,,,0.00,,2013-06-07 16:53:00,
2013-06-07 11:02:00,71.0,52.0,26.56,ESE,123,8.0,13.0,52,0.00,,,0.00,,2013-06-07 17:02:00,
2013-06-07 11:12:00,71.0,52.0,26.56,ESE,123,8.0,13.0,52,0.00,,,0.00,,2013-06-07 17:12:00,
2013-06-07 11:22:00,71.0,52.0,26.56,ESE,117,7.0,15.0,52,0.00,,,0.00,,2013-06-07 17:22:00,
2013-06-07 11:32:00,72.0,52.0,26.55,SE,125,8.0,16.0,49,0.00,,,0.00,,2013-06-07 17:32:00,
2013-06-07 11:42:00,72.0,52.0,26.55,SE,125,8.0,16.0,49,0.00,,,0.00,,2013-06-07 17:42:00,
2013-06-07 11:52:00,74.0,52.0,26.54,ESE,113,8.0,11.0,47,0.00,,,0.00,,2013-06-07 17:52:00,
2013-06-07 12:05:00,74.0,52.0,26.54,ESE,114,8.0,16.0,46,0.00,,,0.00,,2013-06-07 18:05:00,
2013-06-07 12:17:00,74.0,52.0,26.54,ESE,114,8.0,16.0,46,0.00,,,0.00,,2013-06-07 18:17:00,
2013-06-07 12:35:00,76.0,51.0,26.53,ESE,110,8.0,12.0,42,0.00,,,0.00,,2013-06-07 18:35:00,
2013-06-07 12:44:00,76.0,51.0,26.53,ESE,110,8.0,12.0,42,0.00,,,0.00,,2013-06-07 18:44:00,
2013-06-07 13:05:00,77.0,51.0,26.51,South,184,7.0,12.0,40,0.00,,,0.00,,2013-06-07 19:05:00,
2013-06-07 13:14:00,77.0,51.0,26.51,South,184,7.0,12.0,40,0.00,,,0.00,,2013-06-07 19:14:00,
2013-06-07 13:28:00,77.0,52.0,26.51,ESE,113,8.0,12.0,42,0.00,,,0.00,,2013-06-07 19:28:00,
2013-06-07 13:34:00,77.0,51.0,26.50,ESE,103,9.0,15.0,40,0.00,,,0.00,,2013-06-07 19:34:00,
2013-06-07 13:46:00,77.0,51.0,26.50,ESE,103,9.0,15.0,40,0.00,,,0.00,,2013-06-07 19:46:00,
2013-06-07 13:58:00,78.0,52.0,26.50,SE,126,5.0,16.0,41,0.00,,,0.00,,2013-06-07 19:58:00,
2013-06-07 14:07:00,78.0,52.0,26.49,SE,126,8.0,18.0,40,0.00,,,0.00,,2013-06-07 20:07:00,
2013-06-07 14:15:00,78.0,52.0,26.49,SE,126,8.0,18.0,40,0.00,,,0.00,,2013-06-07 20:15:00,
2013-06-07 14:24:00,78.0,51.0,26.49,ESE,123,5.0,20.0,39,0.00,,,0.00,,2013-06-07 20:24:00,
2013-06-07 14:45:00,78.0,50.0,26.49,ESE,107,7.0,16.0,38,0.00,,,0.00,,2013-06-07 20:45:00,
2013-06-07 14:58:00,79.0,52.0,26.48,SE,135,7.0,12.0,39,0.00,,,0.00,,2013-06-07 20:58:00,
2013-06-07 15:05:00,79.0,51.0,26.47,ESE,119,7.0,16.0,38,0.00,,,0.00,,2013-06-07 21:05:00,
2013-06-07 15:17:00,79.0,51.0,26.47,ESE,119,7.0,16.0,38,0.00,,,0.00,,2013-06-07 21:17:00,
2013-06-07 15:38:00,78.0,50.0,26.46,ESE,104,6.0,12.0,37,0.00,,,0.00,,2013-06-07 21:38:00,
2013-06-07 15:45:00,78.0,50.0,26.46,ESE,104,6.0,12.0,37,0.00,,,0.00,,2013-06-07 21:45:00,
2013-06-07 16:00:00,78.0,50.0,26.45,ESE,118,6.0,11.0,38,0.00,,,0.00,,2013-06-07 22:00:00,
2013-06-07 16:07:00,79.0,50.0,26.44,East,90,7.0,14.0,37,0.00,,,0.00,,2013-06-07 22:07:00,
2013-06-07 16:20:00,79.0,50.0,26.44,East,90,7.0,14.0,37,0.00,,,0.00,,2013-06-07 22:20:00,
2013-06-07 16:27:00,79.0,50.0,26.44,ESE,117,6.0,11.0,37,0.00,,,0.00,,2013-06-07 22:27:00,
2013-06-07 16:59:00,80.0,51.0,26.43,ESE,103,8.0,12.0,36,0.00,,,0.00,,2013-06-07 22:59:00,
2013-06-07 17:05:00,79.0,50.0,26.42,ESE,113,7.0,15.0,36,0.00,,,0.00,,2013-06-07 23:05:00,
2013-06-07 17:18:00,79.0,50.0,26.42,ESE,113,7.0,15.0,36,0.00,,,0.00,,2013-06-07 23:18:00,
2013-06-07 17:28:00,79.0,50.0,26.41,ESE,106,8.0,13.0,37,0.00,,,0.00,,2013-06-07 23:28:00,
2013-06-07 17:36:00,79.0,50.0,26.41,ESE,107,8.0,12.0,37,0.00,,,0.00,,2013-06-07 23:36:00,
2013-06-07 17:48:00,79.0,50.0,26.41,ESE,107,8.0,12.0,37,0.00,,,0.00,,2013-06-07 23:48:00,
2013-06-07 18:09:00,78.0,51.0,26.39,SE,125,6.0,11.0,39,0.00,,,0.00,,2013-06-08 00:09:00,
2013-06-07 18:26:00,78.0,51.0,26.39,ESE,108,5.0,9.0,39,0.00,,,0.00,,2013-06-08 00:26:00,
2013-06-07 18:34:00,78.0,52.0,26.39,East,98,6.0,9.0,40,0.00,,,0.00,,2013-06-08 00:34:00,
2013-06-07 18:44:00,78.0,52.0,26.39,East,98,6.0,9.0,40,0.00,,,0.00,,2013-06-08 00:44:00,
2013-06-07 19:05:00,76.0,51.0,26.38,East,99,5.0,9.0,41,0.00,,,0.00,,2013-06-08 01:05:00,
2013-06-07 19:18:00,76.0,51.0,26.38,East,99,5.0,9.0,41,0.00,,,0.00,,2013-06-08 01:18:00,
2013-06-07 19:26:00,76.0,52.0,26.37,ESE,120,3.0,7.0,44,0.00,,,0.00,,2013-06-08 01:26:00,
2013-06-07 19:37:00,75.0,51.0,26.38,ESE,109,1.0,6.0,43,0.00,,,0.00,,2013-06-08 01:37:00,
2013-06-07 19:44:00,75.0,51.0,26.38,ESE,109,1.0,6.0,43,0.00,,,0.00,,2013-06-08 01:44:00,
2013-06-07 20:00:00,75.0,52.0,26.38,East,94,2.0,5.0,44,0.00,,,0.00,,2013-06-08 02:00:00,
2013-06-07 20:08:00,74.0,51.0,26.39,West,274,4.0,6.0,45,0.00,,,0.00,,2013-06-08 02:08:00,
2013-06-07 20:14:00,74.0,51.0,26.39,West,274,4.0,6.0,45,0.00,,,0.00,,2013-06-08 02:14:00,
2013-06-07 20:47:00,74.0,54.0,26.40,NNE,18,4.0,10.0,49,0.00,,,0.00,,2013-06-08 02:47:00,
2013-06-07 20:59:00,72.0,53.0,26.39,WNW,284,0.0,5.0,52,0.01,,,0.01,,2013-06-08 02:59:00,
2013-06-07 21:08:00,68.0,54.0,26.37,WNW,285,0.0,1.0,60,0.03,,,0.03,,2013-06-08 03:08:00,
2013-06-07 21:15:00,68.0,54.0,26.37,WNW,285,0.0,1.0,60,0.03,,,0.03,,2013-06-08 03:15:00,
2013-06-07 21:26:00,67.0,56.0,26.38,NNW,335,1.0,6.0,67,0.03,,,0.03,,2013-06-08 03:26:00,
2013-06-07 21:36:00,66.0,55.0,26.40,West,276,7.0,11.0,68,0.03,,,0.03,,2013-06-08 03:36:00,
2013-06-07 21:50:00,66.0,55.0,26.40,West,276,7.0,11.0,68,0.03,,,0.03,,2013-06-08 03:50:00,
2013-06-07 22:00:00,67.0,55.0,26.43,North,351,8.0,14.0,66,0.02,,,0.03,,2013-06-08 04:00:00,
2013-06-07 22:03:00,66.0,53.0,26.45,NNW,341,10.0,20.0,64,0.01,,,0.04,,2013-06-08 04:03:00,
2013-06-07 22:12:00,66.0,53.0,26.45,NNW,341,10.0,20.0,64,0.01,,,0.04,,2013-06-08 04:12:00,
2013-06-07 22:23:00,63.0,53.0,26.44,SSW,211,3.0,9.0,70,0.04,,,0.07,,2013-06-08 04:23:00,
2013-06-07 22:33:00,61.0,54.0,26.40,East,96,5.0,15.0,78,0.08,,,0.11,,2013-06-08 04:33:00,
2013-06-07 22:42:00,61.0,54.0,26.40,East,96,5.0,15.0,78,0.08,,,0.11,,2013-06-08 04:42:00,
2013-06-07 22:53:00,61.0,55.0,26.42,NNW,331,1.0,3.0,81,0.08,,,0.11,,2013-06-08 04:53:00,
2013-06-07 23:02:00,60.0,54.0,26.40,West,273,1.0,4.0,80,0.07,,,0.11,,2013-06-08 05:02:00,
2013-06-07 23:12:00,60.0,54.0,26.40,West,273,1.0,4.0,80,0.07,,,0.11,,2013-06-08 05:12:00,
2013-06-07 23:22:00,60.0,54.0,26.39,West,274,0.0,1.0,80,0.03,,,0.11,,2013-06-08 05:22:00,
2013-06-07 23:32:00,60.0,54.0,26.37,West,274,0.0,5.0,81,0.00,,,0.11,,2013-06-08 05:32:00,
2013-06-07 23:42:00,60.0,54.0,26.37,West,274,0.0,5.0,81,0.00,,,0.11,,2013-06-08 05:42:00,
2013-06-07 23:53:00,60.0,54.0,26.36,West,273,2.0,4.0,81,0.00,,,0.11,,2013-06-08 05:53:00,